Socorro, NM

11:15 PM MDT on April 21, 2018 (GMT -0600)
Socorro Municipal

Weather History for KONM - November, 2013

Change the Weather History Date:

Monday, November 11, 2013

  Actual Average Record
Temperature  
Mean Temperature 56 °F -  
Max Temperature 72 °F 64 °F 73 °F (2017)
Min Temperature 40 °F 30 °F 31 °F (2012)
Degree Days  
Heating Degree Days 9    
Growing Degree Days 6 (Base 50)    
Moisture  
Dew Point 26 °F    
Average Humidity 37    
Maximum Humidity 58    
Minimum Humidity 17    
Precipitation  
Precipitation 0.00 in - - ()
Sea Level Pressure  
Sea Level Pressure 30.29 in    
Wind  
Wind Speed 8 mph (NNW)    
Max Wind Speed 15 mph    
Max Gust Speed 17 mph    
Visibility 10 miles    
Events      
Averages and records for this station are not official NWS values.
T = Trace of Precipitation, MM = Missing Value Source: NWS Daily Summary

Daily Weather History Graph

Daily Weather History Graph

Search for Another Location

Airport or City:

Astronomy

Nov. 11, 2013 Rise Set
Actual Time 6:36 AM MST 5:06 PM MST
Civil Twilight 6:10 AM MST 5:32 PM MST
Nautical Twilight 5:40 AM MST 6:02 PM MST
Astronomical Twilight 5:10 AM MST 6:32 PM MST
Moon 1:34 PM MST (11/11) 12:41 AM MST (11/11)
Length of Visible Light 11h 22m
Length of Day
10h 29m
Waxing Gibbous, 67% of the Moon is Illuminated
Nov 11
Waxing Gibbous
Nov 17
Full
Nov 25
Last Quarter
Dec 2
New
Dec 9
First Quarter

Hourly Weather History & Observations

Time (MST) Temp. Windchill Dew Point Humidity Pressure Visibility Wind Dir Wind Speed Gust Speed Precip Events Conditions
12:15 AM 43.3 °F 39.9 °F 27.1 °F 53% 30.26 in 10.0 mi NW 5.8 mph - N/A   Clear
12:35 AM 43.5 °F 40.9 °F 26.6 °F 51% 30.26 in 10.0 mi NNW 4.6 mph - N/A   Clear
12:55 AM 44.2 °F 41.0 °F 26.4 °F 50% 30.26 in 10.0 mi NNW 5.8 mph - N/A   Clear
1:15 AM 43.9 °F 39.3 °F 26.4 °F 50% 30.26 in 10.0 mi NW 8.1 mph - N/A   Clear
1:35 AM 45.5 °F 41.3 °F 26.6 °F 48% 30.27 in 10.0 mi NNW 8.1 mph - N/A   Clear
1:55 AM 44.6 °F 40.7 °F 26.2 °F 49% 30.27 in 10.0 mi NNW 6.9 mph - N/A   Clear
2:15 AM 43.9 °F 40.5 °F 26.1 °F 50% 30.26 in 10.0 mi NNW 5.8 mph - N/A   Clear
2:35 AM 42.8 °F 38.6 °F 26.1 °F 52% 30.27 in 10.0 mi NW 6.9 mph - N/A   Clear
2:55 AM 42.8 °F 38.0 °F 25.7 °F 51% 30.27 in 10.0 mi NW 8.1 mph - N/A   Clear
3:15 AM 43.0 °F 38.2 °F 26.2 °F 52% 30.27 in 10.0 mi NW 8.1 mph - N/A   Clear
3:35 AM 43.2 °F 37.4 °F 26.4 °F 52% 30.26 in 10.0 mi NW 10.4 mph - N/A   Clear
3:55 AM 43.2 °F 38.4 °F 26.4 °F 52% 30.27 in 10.0 mi NW 8.1 mph - N/A   Clear
4:15 AM 42.3 °F 36.8 °F 26.2 °F 53% 30.27 in 10.0 mi NW 9.2 mph - N/A   Clear
4:35 AM 42.6 °F 37.2 °F 26.6 °F 53% 30.28 in 10.0 mi NNW 9.2 mph - N/A   Clear
4:55 AM 43.0 °F 36.8 °F 26.6 °F 52% 30.29 in 10.0 mi NW 11.5 mph - N/A   Clear
5:15 AM 41.9 °F 36.3 °F 27.0 °F 55% 30.29 in 10.0 mi NNW 9.2 mph - N/A   Clear
5:35 AM 42.4 °F 36.5 °F 27.0 °F 54% 30.29 in 10.0 mi NNW 10.4 mph - N/A   Clear
5:55 AM 41.9 °F 36.9 °F 26.6 °F 55% 30.30 in 10.0 mi NNW 8.1 mph - N/A   Clear
6:15 AM 41.0 °F 34.7 °F 26.6 °F 57% 30.30 in 10.0 mi NW 10.4 mph - N/A   Clear
6:35 AM 40.5 °F 34.6 °F 26.6 °F 58% 30.31 in 10.0 mi NW 9.2 mph - N/A   Clear
6:55 AM 40.6 °F 35.4 °F 26.8 °F 58% 30.32 in 10.0 mi NNW 8.1 mph - N/A   Clear
7:15 AM 41.2 °F 35.5 °F 27.0 °F 57% 30.33 in 10.0 mi NNW 9.2 mph - N/A   Clear
7:35 AM 43.2 °F 38.4 °F 27.5 °F 54% 30.33 in 10.0 mi NNW 8.1 mph - N/A   Clear
7:55 AM 45.5 °F 41.3 °F 28.0 °F 51% 30.34 in 10.0 mi NNW 8.1 mph - N/A   Clear
8:15 AM 48.0 °F - 28.0 °F 46% 30.34 in 10.0 mi North 12.7 mph - N/A   Clear
8:35 AM 49.8 °F - 27.9 °F 43% 30.35 in 10.0 mi North 10.4 mph - N/A   Clear
8:55 AM 51.4 °F - 27.7 °F 40% 30.35 in 10.0 mi North 9.2 mph - N/A   Clear
9:15 AM 53.2 °F - 27.7 °F 37% 30.35 in 10.0 mi North 10.4 mph 16.1 mph N/A   Clear
9:35 AM 55.4 °F - 28.9 °F 36% 30.34 in 10.0 mi North 12.7 mph - N/A   Clear
9:55 AM 57.9 °F - 28.4 °F 32% 30.34 in 10.0 mi North 13.8 mph - N/A   Clear
10:15 AM 59.4 °F - 28.2 °F 31% 30.34 in 10.0 mi North 15.0 mph - N/A   Clear
10:35 AM 60.8 °F - 28.4 °F 29% 30.34 in 10.0 mi North 12.7 mph - N/A   Clear
10:55 AM 61.7 °F - 28.2 °F 28% 30.33 in 10.0 mi North 10.4 mph - N/A   Clear
11:15 AM 63.0 °F - 28.4 °F 27% 30.32 in 10.0 mi North 11.5 mph - N/A   Clear
11:35 AM 64.4 °F - 28.4 °F 26% 30.32 in 10.0 mi North 12.7 mph - N/A   Clear
11:55 AM 65.5 °F - 28.6 °F 25% 30.31 in 10.0 mi North 11.5 mph - N/A   Clear
12:15 PM 67.1 °F - 28.4 °F 23% 30.29 in 10.0 mi NNE 12.7 mph - N/A   Clear
12:35 PM 67.3 °F - 28.4 °F 23% 30.28 in 10.0 mi NNE 12.7 mph 16.1 mph N/A   Clear
12:55 PM 68.9 °F - 29.1 °F 23% 30.27 in 10.0 mi North 10.4 mph - N/A   Clear
1:15 PM 70.0 °F - 28.8 °F 22% 30.26 in 10.0 mi North 8.1 mph - N/A   Clear
1:35 PM 70.7 °F - 27.9 °F 20% 30.25 in 10.0 mi North 11.5 mph 17.3 mph N/A   Clear
1:55 PM 71.2 °F - 27.5 °F 20% 30.25 in 10.0 mi North 12.7 mph - N/A   Clear
2:15 PM 71.8 °F - 25.9 °F 18% 30.25 in 10.0 mi NNW 10.4 mph 16.1 mph N/A   Clear
2:35 PM 72.5 °F - 25.7 °F 17% 30.25 in 10.0 mi North 11.5 mph - N/A   Clear
2:55 PM 72.3 °F - 25.2 °F 17% 30.24 in 10.0 mi North 8.1 mph - N/A   Clear
3:15 PM 72.1 °F - 25.7 °F 18% 30.24 in 10.0 mi NNW 9.2 mph - N/A   Clear
3:35 PM 71.8 °F - 25.2 °F 18% 30.24 in 10.0 mi NNW 9.2 mph - N/A   Clear
3:55 PM 71.1 °F - 24.8 °F 18% 30.24 in 10.0 mi North 9.2 mph - N/A   Clear
4:15 PM 70.3 °F - 24.6 °F 18% 30.24 in 10.0 mi NNW 6.9 mph - N/A   Clear
4:35 PM 68.9 °F - 25.3 °F 19% 30.25 in 10.0 mi NNW 8.1 mph - N/A   Clear
4:55 PM 65.1 °F - 25.9 °F 23% 30.25 in 10.0 mi NNW 6.9 mph - N/A   Clear
5:15 PM 60.6 °F - 25.0 °F 26% 30.25 in 10.0 mi NW 9.2 mph - N/A   Clear
5:35 PM 58.5 °F - 24.1 °F 27% 30.26 in 10.0 mi WNW 6.9 mph - N/A   Clear
5:55 PM 56.7 °F - 24.1 °F 28% 30.26 in 10.0 mi NW 5.8 mph - N/A   Clear
6:15 PM 57.0 °F - 24.1 °F 28% 30.27 in 10.0 mi NW 6.9 mph - N/A   Clear
6:35 PM 56.3 °F - 23.9 °F 29% 30.28 in 10.0 mi WNW 8.1 mph - N/A   Clear
6:55 PM 55.6 °F - 23.9 °F 29% 30.28 in 10.0 mi North 3.5 mph - N/A   Clear
7:15 PM 53.1 °F - 23.7 °F 32% 30.29 in 10.0 mi Calm Calm - N/A   Clear
7:35 PM 52.5 °F - 23.0 °F 32% 30.29 in 10.0 mi Calm Calm - N/A   Clear
7:55 PM 49.5 °F - 22.6 °F 35% 30.29 in 10.0 mi Calm Calm - N/A   Clear
8:15 PM 48.9 °F - 22.5 °F 35% 30.30 in 10.0 mi Calm Calm - N/A   Clear
8:35 PM 49.8 °F - 22.6 °F 34% 30.30 in 10.0 mi NNW 4.6 mph - N/A   Clear
8:55 PM 50.2 °F - 23.0 °F 35% 30.31 in 10.0 mi NNW 5.8 mph - N/A   Clear
9:15 PM 48.9 °F - 22.6 °F 36% 30.31 in 10.0 mi WNW 4.6 mph - N/A   Clear
9:35 PM 52.3 °F - 22.6 °F 31% 30.32 in 10.0 mi NW 3.5 mph - N/A   Clear
9:55 PM 49.5 °F - 23.0 °F 35% 30.33 in 10.0 mi NNW 5.8 mph - N/A   Clear
10:15 PM 47.8 °F - 23.0 °F 38% 30.34 in 10.0 mi NNW 8.1 mph - N/A   Clear
10:35 PM 46.8 °F - 22.6 °F 39% 30.35 in 10.0 mi NNW 5.8 mph - N/A   Clear
10:55 PM 46.8 °F - 22.3 °F 38% 30.36 in 10.0 mi NW 9.2 mph - N/A   Clear
11:15 PM 46.6 °F - 22.1 °F 38% 30.36 in 10.0 mi WNW 9.2 mph - N/A   Clear
11:35 PM 46.8 °F - 22.1 °F 38% 30.37 in 10.0 mi NW 8.1 mph - N/A   Clear
11:55 PM 46.4 °F 41.1 °F 22.1 °F 38% 30.37 in 10.0 mi WNW 11.5 mph - N/A   Clear